This is the latest recevied weather packets stored in our database for station/object KC3ELT-10. If no packets are shown the sender has not sent any weather packets the latest 1 day(s).
| Time | Temp. | Humidity | Pressure | Rain* | Wind** | Luminosity | Snow |
|---|---|---|---|---|---|---|---|
| 1777981979 | 13.33° C | 77% | 1004.8 hPa | 0 mm | 1.79 m/s, 171° | - | - |
| 1777981679 | 13.33° C | 78% | 1004.8 hPa | 0 mm | 0.45 m/s, 189° | - | - |
| 1777981379 | 12.78° C | 79% | 1004.8 hPa | 0 mm | 0.45 m/s, 155° | - | - |
| 1777981079 | 12.78° C | 79% | 1004.8 hPa | 0 mm | 1.34 m/s, 164° | - | - |
| 1777980779 | 12.78° C | 80% | 1004.8 hPa | 0 mm | 2.24 m/s, 140° | - | - |
| 1777980479 | 12.22° C | 80% | 1004.9 hPa | 0 mm | 0.89 m/s, 165° | - | - |
| 1777980179 | 12.22° C | 80% | 1004.9 hPa | 0 mm | 0.45 m/s, 160° | - | - |
| 1777979879 | 12.22° C | 80% | 1004.9 hPa | 0 mm | 0.45 m/s, 183° | - | - |
| 1777979579 | 12.22° C | 81% | 1004.8 hPa | 0 mm | 0.45 m/s, 164° | - | - |
| 1777979279 | 11.67° C | 81% | 1004.8 hPa | 0 mm | 1.34 m/s, 167° | - | - |
| 1777978979 | 11.67° C | 82% | 1004.8 hPa | 0 mm | 0.89 m/s, 150° | - | - |
| 1777978679 | 11.67° C | 83% | 1004.7 hPa | 0 mm | 0.89 m/s, 163° | - | - |
| 1777978379 | 11.67° C | 83% | 1004.7 hPa | 0 mm | 0.45 m/s, 162° | - | - |
| 1777978079 | 11.11° C | 83% | 1004.7 hPa | 0 mm | 1.34 m/s, 184° | - | - |
| 1777977779 | 11.11° C | 83% | 1004.3 hPa | 0 mm | 0.45 m/s, 165° | - | - |
| 1777977479 | 11.11° C | 83% | 1004.3 hPa | 0 mm | 0.89 m/s, 164° | - | - |
| 1777977179 | 11.11° C | 83% | 1004.3 hPa | 0 mm | 0.89 m/s, 146° | - | - |
| 1777976879 | 11.11° C | 83% | 1004.4 hPa | 0 mm | 0.89 m/s, 136° | - | - |
| 1777976579 | 11.11° C | 83% | 1004.4 hPa | 0 mm | 0.89 m/s, 164° | - | - |
| 1777976279 | 11.11° C | 83% | 1004.4 hPa | 0 mm | 0.45 m/s, 165° | - | - |
| 1777975979 | 11.11° C | 83% | 1004.3 hPa | 0 mm | 0.89 m/s, 160° | - | - |
| 1777975679 | 11.67° C | 82% | 1004.3 hPa | 0 mm | 0 m/s | - | - |
| 1777975378 | 11.67° C | 82% | 1004.3 hPa | 0 mm | 0.45 m/s, 128° | - | - |
| 1777975079 | 11.67° C | 82% | 1004.3 hPa | 0 mm | 0.45 m/s, 139° | - | - |
| 1777974779 | 11.67° C | 82% | 1004.3 hPa | 0 mm | 1.79 m/s, 129° | - | - |
* Rain latest hour (hover to see other rain measurements)
** Current wind speed in m/s (hover to see current wind gust speed)